7 * 24
多渠道服务支持
STARLINK-38096(NORAD编号100119)是美国太空探索技术公司(SpaceX)研发的星链星座卫星,于2025年发射升空,设计寿命约5年,运行在距地表约550公里的近地轨道。 作为星链全球互联网组网的组成部分,该卫星可与地面站通信,传输速率超1Gbps,旨在为通信基础设施薄弱区域提供高速网络服务。其运行轨道处于星链卫星常规部署区间,具备自主避障变轨能力,不过在轨运行也存在对光学及射电天文观测产生干扰的潜在影响。
美国
(US)
| 数据来源 | 国际轨道数据 |
| 星历时间: | 2026-09-15T03:05:40+0800 19小时前 查看轨道信息 |
| 半长轴: | 6722.25km |
| 偏心率: | 0.0000993 |
| 轨道倾角: | 97.284° |
| 近地点辐角 | 100.464° |
| 升交点赤经 | 275.835° |
| 平近点角 | 259.674° |
| 近地点: | 343.445km |
| 远地点: | 344.781km |
| 周期: | 91.418分钟 |
| 每日圈数: | 15.751823 |